Time,TemperatureF,DewpointF,PressureIn,WindDirection,WindDirectionDegrees,WindSpeedMPH,WindSpeedGustMPH,Humidity,HourlyPrecipIn,Conditions,Clouds,dailyrainin,SoftwareType,DateUTC
2013-06-19 02:22:00,54.0,50.0,-100.00,North,355,0.0,0.0,88,-99.99,,,-99.99,,2013-06-19 07:22:00,
2013-06-19 02:33:00,54.0,50.0,-100.00,North,355,0.0,0.0,88,-99.99,,,-99.99,,2013-06-19 07:33:00,
2013-06-19 02:43:00,54.0,50.0,-100.00,North,355,0.0,0.0,88,-99.99,,,-99.99,,2013-06-19 07:43:00,
2013-06-19 02:53:00,54.0,50.0,-100.00,North,355,0.0,0.0,88,-99.99,,,-99.99,,2013-06-19 07:53:00,
2013-06-19 03:22:00,52.0,51.0,-100.00,North,355,0.0,0.0,95,-99.99,,,-99.99,,2013-06-19 08:22:00,
2013-06-19 03:33:00,52.0,51.0,-100.00,North,355,0.0,0.0,95,-99.99,,,-99.99,,2013-06-19 08:33:00,
2013-06-19 03:43:00,52.0,51.0,-100.00,North,355,0.0,0.0,95,-99.99,,,-99.99,,2013-06-19 08:43:00,
2013-06-19 04:22:00,51.0,51.0,-100.00,North,355,0.0,0.0,98,-99.99,,,-99.99,,2013-06-19 09:22:00,
2013-06-19 05:22:00,52.0,51.0,-100.00,North,355,0.0,0.0,97,-99.99,,,-99.99,,2013-06-19 10:22:00,
2013-06-19 07:22:00,58.0,56.0,-100.00,North,355,0.0,0.0,92,-99.99,,,-99.99,,2013-06-19 12:22:00,
2013-06-19 08:22:00,64.0,59.0,-100.00,North,355,0.0,0.0,82,-99.99,,,-99.99,,2013-06-19 13:22:00,
2013-06-19 09:22:00,69.0,58.0,-100.00,North,355,0.0,0.0,67,-99.99,,,-99.99,,2013-06-19 14:22:00,
2013-06-19 10:22:00,74.0,59.0,-100.00,North,355,0.0,0.0,60,-99.99,,,-99.99,,2013-06-19 15:22:00,
2013-06-19 10:33:00,74.0,59.0,-100.00,North,355,0.0,0.0,60,-99.99,,,-99.99,,2013-06-19 15:33:00,
2013-06-19 10:42:00,74.0,59.0,-100.00,North,355,0.0,0.0,60,-99.99,,,-99.99,,2013-06-19 15:42:00,
2013-06-19 10:53:00,74.0,59.0,-100.00,North,355,0.0,0.0,60,-99.99,,,-99.99,,2013-06-19 15:53:00,
2013-06-19 12:22:00,77.0,62.0,-100.00,North,355,0.0,0.0,60,-99.99,,,-99.99,,2013-06-19 17:22:00,
2013-06-19 14:22:00,76.0,60.0,-100.00,North,355,0.0,0.0,57,-99.99,,,-99.99,,2013-06-19 19:22:00,
2013-06-19 14:32:00,76.0,60.0,-100.00,North,355,0.0,0.0,57,-99.99,,,-99.99,,2013-06-19 19:32:00,
2013-06-19 14:43:00,76.0,60.0,-100.00,North,355,0.0,0.0,57,-99.99,,,-99.99,,2013-06-19 19:43:00,
2013-06-19 14:52:00,76.0,60.0,-100.00,North,355,0.0,0.0,57,-99.99,,,-99.99,,2013-06-19 19:52:00,
2013-06-19 15:22:00,80.0,61.0,-100.00,North,355,0.0,0.0,53,-99.99,,,-99.99,,2013-06-19 20:22:00,
2013-06-19 15:33:00,80.0,61.0,-100.00,North,355,0.0,0.0,53,-99.99,,,-99.99,,2013-06-19 20:33:00,
2013-06-19 17:22:00,82.0,60.0,-100.00,North,355,0.0,0.0,47,-99.99,,,-99.99,,2013-06-19 22:22:00,
2013-06-19 17:34:00,82.0,60.0,-100.00,North,355,0.0,0.0,47,-99.99,,,-99.99,,2013-06-19 22:34:00,
2013-06-19 17:43:00,82.0,60.0,-100.00,North,355,0.0,0.0,47,-99.99,,,-99.99,,2013-06-19 22:43:00,
2013-06-19 17:53:00,82.0,60.0,-100.00,North,355,0.0,0.0,47,-99.99,,,-99.99,,2013-06-19 22:53:00,
2013-06-19 18:23:00,80.0,58.0,-100.00,North,355,0.0,0.0,48,-99.99,,,-99.99,,2013-06-19 23:23:00,
2013-06-19 18:33:00,80.0,58.0,-100.00,North,355,0.0,0.0,48,-99.99,,,-99.99,,2013-06-19 23:33:00,
2013-06-19 18:43:00,80.0,58.0,-100.00,North,355,0.0,0.0,48,-99.99,,,-99.99,,2013-06-19 23:43:00,
2013-06-19 18:52:00,80.0,58.0,-100.00,North,355,0.0,0.0,48,-99.99,,,-99.99,,2013-06-19 23:52:00,
2013-06-19 19:22:00,76.0,59.0,-100.00,North,355,0.0,0.0,56,-99.99,,,-99.99,,2013-06-20 00:22:00,
2013-06-19 19:33:00,76.0,59.0,-100.00,North,355,0.0,0.0,56,-99.99,,,-99.99,,2013-06-20 00:33:00,
2013-06-19 19:44:00,76.0,59.0,-100.00,North,355,0.0,0.0,56,-99.99,,,-99.99,,2013-06-20 00:44:00,
2013-06-19 19:52:00,76.0,59.0,-100.00,North,355,0.0,0.0,56,-99.99,,,-99.99,,2013-06-20 00:52:00,
2013-06-19 20:22:00,72.0,55.0,-100.00,North,355,0.0,0.0,56,-99.99,,,-99.99,,2013-06-20 01:22:00,
2013-06-19 20:33:00,72.0,55.0,-100.00,North,355,0.0,0.0,56,-99.99,,,-99.99,,2013-06-20 01:33:00,
2013-06-19 20:44:00,72.0,55.0,-100.00,North,355,0.0,0.0,56,-99.99,,,-99.99,,2013-06-20 01:44:00,
2013-06-19 20:52:00,72.0,55.0,-100.00,North,355,0.0,0.0,56,-99.99,,,-99.99,,2013-06-20 01:52:00,
2013-06-19 22:22:00,65.0,52.0,-100.00,North,355,0.0,0.0,63,-99.99,,,-99.99,,2013-06-20 03:22:00,
2013-06-19 22:33:00,65.0,52.0,-100.00,North,355,0.0,0.0,63,-99.99,,,-99.99,,2013-06-20 03:33:00,
2013-06-19 22:43:00,65.0,52.0,-100.00,North,355,0.0,0.0,63,-99.99,,,-99.99,,2013-06-20 03:43:00,
2013-06-19 22:53:00,65.0,52.0,-100.00,North,355,0.0,0.0,63,-99.99,,,-99.99,,2013-06-20 03:53:00,
2013-06-19 23:22:00,63.0,50.0,-100.00,North,355,0.0,0.0,62,-99.99,,,-99.99,,2013-06-20 04:22:00,
2013-06-19 23:34:00,63.0,50.0,-100.00,North,355,0.0,0.0,62,-99.99,,,-99.99,,2013-06-20 04:34:00,
2013-06-19 23:43:00,63.0,50.0,-100.00,North,355,0.0,0.0,62,-99.99,,,-99.99,,2013-06-20 04:43:00,
2013-06-19 23:53:00,63.0,50.0,-100.00,North,355,0.0,0.0,62,-99.99,,,-99.99,,2013-06-20 04:53:00,